[[{"header":{"parameterUnit":"m.s-1","parameterCategory":1,"la1":30.2991,"la2":30.254,"lo1":-89.0895,"lo2":-89.0444,"dy":0.0017,"dx":0.0017,"nx":28,"ny":28,"refTime":"2024-06-07T09:00:00:Z","depth":0,"parameterNumber":2,"parameterNumberName":"U-component_of_WINDS"},"data":[0,0,0,0,0,0,0,0,0,0,0,0,0,0,0,0,0,0,0,0,0,0,0,0,0,0,0,0,0,0,0,0,0,0,0,0,0,0,0,0,0,0,0,0,0,0,0,0,0,0,0,0,0,0,0,0,0,0,0.654,0.6541,0,0.6629,0.663,0.6631,0.6656,0.6656,0.6655,0.6655,0.6746,0.6749,0.6752,0,0,0,0,0,0,0,0,0,0,0,0,0,0.6388,0.6391,0.654,0.6541,0.6542,0.6629,0.663,0.6632,0.6656,0.6656,0.6655,0.6655,0.6745,0.6748,0.6752,0,0,0,0,0,0,0,0,0,0,0,0,0,0.6464,0.6392,0.654,0.6565,0.6568,0.6629,0.6631,0.6632,0.6657,0.6656,0.6655,0.6654,0.6744,0.6748,0.6752,0.6794,0,0,0.6766,0.6767,0,0,0,0,0,0,0,0,0.6459,0.6469,0.656,0.6563,0.6567,0.6631,0.661,0.6686,0.6657,0.6623,0.6655,0.6654,0.6708,0.6715,0.6734,0.6798,0.6802,0.6766,0.6769,0.677,0.6772,0,0,0,0,0,0,0,0.6454,0.6465,0.6575,0.6561,0.6566,0.6571,0.6581,0.6625,0.6669,0.6626,0.6628,0.6638,0.671,0.673,0.6736,0.6804,0.6766,0.677,0.6772,0.6774,0.6906,0.6907,0,0,0,0,0,0,0.6445,0.6461,0.6572,0.6578,0.651,0.6574,0.6586,0.6611,0.6668,0.6676,0.6639,0.6639,0.6723,0.6731,0.6739,0.6791,0.677,0.6774,0.6777,0.6905,0.6906,0.6907,0,0,0,0,0,0,0.6441,0.6454,0.6569,0.652,0.6535,0.6578,0.6606,0.6613,0.6633,0.6678,0.6686,0.6651,0.6722,0.6733,0.678,0.6795,0.6776,0.678,0.6904,0.6905,0.6907,0.6896,0,0,0,0,0,0,0.6437,0.6453,0.647,0.652,0.6537,0.6608,0.6607,0.6616,0.6641,0.6642,0.6692,0.6699,0.6723,0.6774,0.6784,0.6801,0.6784,0.6903,0.6905,0.6906,0.6895,0.6897,0.6898,0,0,0,0,0,0.6431,0.6463,0.6471,0.6484,0.656,0.6609,0.6619,0.6646,0.6642,0.6659,0.6687,0.6697,0.6792,0.6778,0.6791,0.6808,0.6902,0.6904,0.6906,0.6895,0.6897,0.6898,0,0,0,0,0,0,0.6414,0.6471,0.6479,0.6529,0.6564,0.6613,0.6636,0.6647,0.6684,0.6684,0.6715,0.6726,0.677,0.6794,0.6778,0.6851,0.6847,0.6852,0.6834,0.6836,0.6838,0.6831,0.6787,0,0,0,0,0,0.6415,0.6452,0.6499,0.6538,0.6555,0.6592,0.6615,0.6632,0.667,0.6685,0.6717,0.6753,0.6791,0.6815,0.6852,0.6899,0.691,0.6917,0.6919,0.692,0.6923,0.6949,0.6952,0.6914,0.6914,0.6914,0,0,0.642,0.6455,0.6476,0.6535,0.6565,0.6601,0.6605,0.6643,0.667,0.6691,0.6737,0.6762,0.6804,0.685,0.6873,0.6872,0.6936,0.6922,0.6923,0.6926,0.6951,0.6955,0.6958,0.6915,0.6915,0.6915,0,0,0.6445,0.6476,0.6512,0.6541,0.6586,0.661,0.6618,0.6666,0.6683,0.673,0.6746,0.6778,0.6842,0.6871,0.6895,0.693,0.6941,0.6941,0.6949,0.6973,0.6976,0.6979,0.6991,0.6995,0.6945,0.6945,0.6945,0,0.6445,0.65,0.6528,0.6566,0.6591,0.6612,0.6647,0.6674,0.6728,0.6745,0.6743,0.6823,0.6853,0.6906,0.6915,0.6933,0.6943,0.6936,0.6974,0.6977,0.698,0.6992,0.6996,0.6945,0.6945,0.6945,0.6945,0,0.6497,0.6535,0.6558,0.661,0.6638,0.6674,0.6706,0.6731,0.6746,0.677,0.6816,0.6853,0.6897,0.6911,0.6926,0.6966,0.6964,0.6968,0.6964,0.6983,0.6994,0.6999,0.6944,0.6944,0.6944,0.6944,0,0,0.6514,0.6581,0.6588,0.6612,0.6662,0.6691,0.6728,0.6772,0.6792,0.6828,0.6859,0.6912,0.6916,0.6942,0.696,0.6982,0.7006,0.6982,0.6984,0.6985,0.7051,0.7048,0.7053,0.7013,0.7014,0.7015,0.7048,0,0.6546,0.6612,0.6638,0.6692,0.6727,0.6747,0.6778,0.6812,0.6835,0.6868,0.6894,0.6931,0.6933,0.6948,0.6971,0.6998,0.702,0.6997,0.7042,0.7043,0.703,0.7059,0.7056,0.7084,0.7052,0.7053,0.7054,0,0.6592,0.6628,0.6685,0.673,0.6746,0.6774,0.6815,0.6847,0.6885,0.69,0.6929,0.6946,0.6984,0.6978,0.703,0.7014,0.7034,0.705,0.7052,0.7057,0.7049,0.7064,0.7094,0.7098,0.7061,0.7061,0.706,0,0.6597,0.6661,0.6703,0.6723,0.6777,0.6796,0.6819,0.6856,0.688,0.6916,0.6932,0.6972,0.6994,0.7024,0.7051,0.7044,0.71,0.7097,0.7114,0.7113,0.7124,0.7123,0.7158,0.7138,0.7138,0.7138,0.7138,0,0.6629,0.6663,0.6706,0.6732,0.6771,0.68,0.6837,0.6861,0.6894,0.6925,0.6944,0.6972,0.7006,0.7039,0.706,0.7099,0.7109,0.7122,0.7127,0.712,0.7118,0.7133,0.7132,0.7139,0.7139,0.7139,0.7138,0,0.6642,0.6673,0.672,0.6767,0.6779,0.6805,0.6845,0.687,0.6894,0.6933,0.6943,0.6981,0.7019,0.7049,0.71,0.7114,0.7156,0.7162,0.7143,0.7145,0.716,0.7158,0.7205,0.7212,0.7188,0.7188,0.7188,0,0.666,0.6687,0.6736,0.6758,0.6781,0.6816,0.6841,0.687,0.6895,0.694,0.696,0.7,0.7034,0.7095,0.7126,0.7165,0.7171,0.7185,0.7177,0.7168,0.717,0.7168,0.717,0.7186,0.7186,0.7186,0.7186,0,0.6689,0.6702,0.6737,0.6777,0.6806,0.6839,0.6872,0.6889,0.6924,0.695,0.699,0.7016,0.7068,0.7107,0.7149,0.7172,0.7184,0.7188,0.7194,0.7187,0.7174,0.718,0.7145,0.7187,0.7187,0.7187,0.7187,0.7187,0.6705,0.6729,0.6767,0.6805,0.6833,0.6863,0.6889,0.6916,0.695,0.6994,0.7009,0.705,0.7087,0.7144,0.7168,0.7199,0.72,0.7208,0.721,0.7212,0.7211,0.717,0.7207,0.7207,0.7207,0.7207,0.7207,0,0.6733,0.6759,0.6794,0.6839,0.6869,0.6878,0.6915,0.6939,0.6975,0.7008,0.7041,0.7086,0.7124,0.7158,0.7198,0.7217,0.7223,0.7226,0.7225,0.7229,0.7209,0.7199,0.722,0.722,0.722,0.722,0.722,0.722,0.6752,0.6793,0.6811,0.6866,0.6891,0.6931,0.6951,0.6979,0.7006,0.7055,0.7087,0.7109,0.7143,0.7184,0.7219,0.7228,0.7242,0.7243,0.7253,0.7233,0.7231,0.723,0.7221,0.7245,0.7245,0.7271,0.7271,0.7271]},{"header":{"parameterUnit":"m.s-1","parameterCategory":1,"la1":30.2991,"la2":30.254,"lo1":-89.0895,"lo2":-89.0444,"dy":0.0017,"dx":0.0017,"nx":28,"ny":28,"refTime":"2024-06-07T09:00:00:Z","depth":0,"parameterNumber":3,"parameterNumberName":"V-component_of_WINDS"},"data":[0,0,0,0,0,0,0,0,0,0,0,0,0,0,0,0,0,0,0,0,0,0,0,0,0,0,0,0,0,0,0,0,0,0,0,0,0,0,0,0,0,0,0,0,0,0,0,0,0,0,0,0,0,0,0,0,0,0,4.4089,4.409,0,4.4131,4.4131,4.4132,4.4076,4.4074,4.4072,4.407,4.4109,4.4112,4.4115,0,0,0,0,0,0,0,0,0,0,0,0,0,4.3957,4.396,4.4089,4.409,4.409,4.4131,4.4131,4.4132,4.4076,4.4074,4.4071,4.4069,4.4108,4.4112,4.4115,0,0,0,0,0,0,0,0,0,0,0,0,0,4.4008,4.3961,4.4089,4.4067,4.4066,4.4131,4.4131,4.4132,4.4077,4.4074,4.4071,4.4068,4.4107,4.4111,4.4116,4.4203,0,0,4.4129,4.4131,0,0,0,0,0,0,0,0,4.4006,4.4013,4.407,4.4069,4.4068,4.4095,4.4099,4.4156,4.4078,4.4073,4.407,4.4067,4.4107,4.4111,4.4125,4.4204,4.4206,4.4129,4.4132,4.4134,4.4135,0,0,0,0,0,0,0,4.4002,4.4011,4.4106,4.4071,4.4069,4.4054,4.4058,4.411,4.4106,4.4073,4.4069,4.4075,4.4105,4.4121,4.4126,4.4207,4.4129,4.4133,4.4136,4.4138,4.4358,4.4361,0,0,0,0,0,0,4.4002,4.4009,4.4104,4.4107,4.4029,4.4059,4.4064,4.4089,4.4105,4.4105,4.4077,4.4072,4.4115,4.4121,4.4127,4.4229,4.4134,4.4138,4.414,4.4354,4.4358,4.4362,0,0,0,0,0,0,4.3999,4.4011,4.4103,4.4057,4.4067,4.4065,4.4094,4.4092,4.4107,4.4109,4.4107,4.4094,4.4113,4.4121,4.4184,4.4229,4.414,4.4144,4.4351,4.4356,4.436,4.4434,0,0,0,0,0,0,4.3996,4.401,4.4044,4.4058,4.407,4.4161,4.4097,4.4095,4.4115,4.4109,4.4124,4.4124,4.4111,4.4178,4.4188,4.4234,4.4147,4.4347,4.4353,4.4359,4.4427,4.4441,4.4452,0,0,0,0,0,4.3991,4.4063,4.4046,4.4058,4.4113,4.4163,4.417,4.4155,4.4119,4.4153,4.4153,4.4123,4.4223,4.4185,4.4196,4.4244,4.4344,4.4351,4.4358,4.4422,4.4438,4.4452,0,0,0,0,0,0,4.4053,4.4064,4.4046,4.4124,4.4144,4.4154,4.4195,4.4173,4.4201,4.4194,4.4173,4.4177,4.4245,4.425,4.4208,4.4328,4.4277,4.4287,4.4322,4.4337,4.4349,4.4346,4.4151,0,0,0,0,0,4.4076,4.4118,4.4125,4.4193,4.4204,4.4198,4.422,4.4207,4.4225,4.4232,4.4238,4.4256,4.4291,4.4314,4.4347,4.4428,4.443,4.4466,4.4479,4.4489,4.4497,4.454,4.4555,4.4386,4.4386,4.4386,0,0,4.4124,4.4135,4.4162,4.4206,4.4219,4.4261,4.4205,4.4252,4.4283,4.4239,4.4299,4.4304,4.4322,4.4395,4.4427,4.4402,4.4545,4.4498,4.4506,4.4509,4.4549,4.4565,4.4579,4.4391,4.439,4.4389,0,0,4.4232,4.4245,4.4304,4.4318,4.4339,4.4335,4.4349,4.4363,4.4364,4.4425,4.4393,4.4428,4.4489,4.4504,4.4519,4.4632,4.4605,4.4643,4.4708,4.4749,4.4763,4.4774,4.4814,4.4828,4.4652,4.4652,4.4652,0,4.4288,4.4352,4.4336,4.4386,4.4405,4.4368,4.4426,4.4441,4.4471,4.4485,4.4456,4.4532,4.4542,4.4617,4.4645,4.4659,4.4673,4.4641,4.4762,4.4774,4.4784,4.4822,4.4837,4.4657,4.4656,4.4656,4.4655,0,4.4419,4.4464,4.4508,4.4539,4.4564,4.4617,4.4608,4.4635,4.462,4.4618,4.4679,4.469,4.4724,4.474,4.4726,4.4813,4.4797,4.4766,4.4714,4.4805,4.484,4.4854,4.4663,4.4661,4.466,4.4659,0,0,4.4568,4.459,4.4606,4.462,4.464,4.4673,4.4724,4.4759,4.4781,4.4803,4.4845,4.4897,4.4869,4.4886,4.4872,4.4909,4.4997,4.4873,4.4873,4.4895,4.5093,4.5116,4.5133,4.498,4.4982,4.4984,4.5091,0,4.4675,4.4766,4.4752,4.4839,4.4879,4.4844,4.4889,4.4905,4.4905,4.4938,4.4937,4.4974,4.4934,4.4944,4.4979,4.4979,4.5036,4.4971,4.5017,4.5019,4.5013,4.5151,4.5176,4.5276,4.5105,4.5107,4.5109,0,4.4813,4.4841,4.4932,4.4945,4.4962,4.5002,4.5032,4.5064,4.5082,4.5079,4.5098,4.5078,4.5128,4.5076,4.5143,4.5099,4.5117,4.512,4.5123,4.5126,4.5069,4.5157,4.5308,4.5322,4.513,4.5128,4.5127,0,4.4911,4.4972,4.5033,4.5046,4.5064,4.5093,4.5101,4.5116,4.5137,4.5162,4.5176,4.5206,4.5223,4.5247,4.5234,4.5198,4.5304,4.5251,4.5302,4.5302,4.5325,4.5324,4.548,4.5338,4.5338,4.5337,4.5337,0,4.5033,4.5089,4.5078,4.5116,4.5177,4.5161,4.5222,4.5226,4.524,4.5277,4.5249,4.5284,4.5266,4.5299,4.529,4.5347,4.5354,4.5353,4.5349,4.5355,4.5355,4.5366,4.5358,4.5341,4.534,4.534,4.5339,0,4.5153,4.5148,4.5213,4.5224,4.5228,4.5273,4.5282,4.5317,4.5315,4.5362,4.5372,4.5368,4.5406,4.5396,4.5437,4.5431,4.5502,4.549,4.5496,4.5493,4.5544,4.5539,4.5712,4.5733,4.5578,4.558,4.5581,0,4.523,4.5273,4.529,4.5313,4.5324,4.5362,4.5383,4.5369,4.5392,4.5415,4.5447,4.5482,4.551,4.5572,4.5571,4.5602,4.559,4.5649,4.5595,4.5599,4.559,4.5588,4.5592,4.5659,4.5661,4.5663,4.5664,0,4.5368,4.5363,4.5396,4.5429,4.5455,4.5479,4.5501,4.5521,4.5508,4.5535,4.5574,4.5596,4.5638,4.5673,4.5701,4.5708,4.5684,4.5681,4.5694,4.57,4.5702,4.5701,4.5525,4.5677,4.5676,4.5675,4.5674,4.5673,4.5469,4.5505,4.5522,4.556,4.5574,4.5595,4.5628,4.563,4.5663,4.5696,4.5685,4.5729,4.5745,4.578,4.5791,4.5824,4.5802,4.5821,4.5826,4.5831,4.5837,4.5697,4.5829,4.5829,4.5829,4.5828,4.5828,0,4.5605,4.5614,4.5649,4.568,4.5709,4.5685,4.5707,4.5732,4.5772,4.5789,4.5817,4.5861,4.5895,4.5897,4.5929,4.5955,4.5944,4.5963,4.5961,4.5963,4.5855,4.5841,4.5971,4.5971,4.5971,4.5971,4.5971,4.5971,4.5679,4.5738,4.5736,4.5802,4.581,4.5854,4.5869,4.5887,4.5901,4.5952,4.598,4.5982,4.5993,4.6025,4.6054,4.6054,4.6066,4.609,4.6085,4.5985,4.597,4.5957,4.5943,4.6093,4.6093,4.619,4.6191,4.6191]}]]